Brooksville, FL

2:45 PM EST on December 14, 2017 (GMT -0500)
Hernando County

Weather History for KBKV - March, 2014

Change the Weather History Date:

Thursday, March 13, 2014

  Actual Average Record
Temperature  
Mean Temperature 55 °F -  
Max Temperature 66 °F 74 °F 86 °F (2015)
Min Temperature 44 °F 50 °F 30 °F (1998)
Degree Days  
Heating Degree Days 10    
Growing Degree Days 5 (Base 50)    
Moisture  
Dew Point 42 °F    
Average Humidity 60    
Maximum Humidity 87    
Minimum Humidity 26    
Precipitation  
Precipitation 0.00 in - - ()
Sea Level Pressure  
Sea Level Pressure 30.07 in    
Wind  
Wind Speed 11 mph (NW)    
Max Wind Speed 18 mph    
Max Gust Speed 30 mph    
Visibility 10 miles    
Events Rain    
Averages and records for this station are not official NWS values.
T = Trace of Precipitation, MM = Missing Value Source: NWS Daily Summary

Daily Weather History Graph

Daily Weather History Graph

Search for Another Location

Airport or City:

Trip Planner

Search our weather history database for the weather conditions in past years. The results will help you decide how hot, cold, wet, or windy it might be!

Date:

Astronomy

Mar. 13, 2014 Rise Set
Actual Time 7:41 AM EDT 7:37 PM EDT
Civil Twilight 7:18 AM EDT 8:00 PM EDT
Nautical Twilight 6:50 AM EDT 8:28 PM EDT
Astronomical Twilight 6:23 AM EDT 8:55 PM EDT
Moon 5:11 PM EDT (3/13) 5:36 AM EDT (3/13)
Length of Visible Light 12h 42m
Length of Day
11h 55m
Waxing Gibbous, 91% of the Moon is Illuminated
Mar 13
Waxing Gibbous
Mar 16
Full
Mar 23
Last Quarter
Mar 30
New
Apr 7
First Quarter

Hourly Weather History & Observations

Time (EDT) Temp. Windchill Dew Point Humidity Pressure Visibility Wind Dir Wind Speed Gust Speed Precip Events Conditions
12:13 AM 64.0 °F - 57.9 °F 80% 29.89 in 10.0 mi West 13.8 mph - N/A   Mostly Cloudy
12:41 AM 63.0 °F - 57.9 °F 84% 29.89 in 10.0 mi West 11.5 mph - N/A   Scattered Clouds
12:53 AM 63.0 °F - 59.0 °F 87% 29.89 in 10.0 mi West 12.7 mph - N/A   Scattered Clouds
1:03 AM 64.0 °F - 59.0 °F 84% 29.89 in 10.0 mi West 12.7 mph - N/A   Mostly Cloudy
1:53 AM 64.0 °F - 59.0 °F 84% 29.88 in 10.0 mi WNW 18.4 mph 29.9 mph N/A   Overcast
2:53 AM 62.1 °F - 55.0 °F 78% 29.89 in 10.0 mi WNW 15.0 mph 23.0 mph N/A   Scattered Clouds
3:53 AM 61.0 °F - 53.1 °F 75% 29.90 in 10.0 mi NNW 11.5 mph - N/A   Partly Cloudy
4:53 AM 55.9 °F - 45.0 °F 67% 29.95 in 10.0 mi NNW 13.8 mph - 0.00 in Rain Light Rain
5:53 AM 51.1 °F - 39.9 °F 66% 30.01 in 10.0 mi North 11.5 mph - 0.00 in   Clear
6:53 AM 48.0 °F - 35.1 °F 61% 30.06 in 10.0 mi North 10.4 mph - 0.00 in Rain Light Rain
7:53 AM 46.0 °F 41.9 °F 34.0 °F 63% 30.10 in 10.0 mi North 8.1 mph - 0.00 in   Clear
8:53 AM 48.0 °F - 34.0 °F 58% 30.13 in 10.0 mi North 11.5 mph - N/A   Clear
9:53 AM 51.1 °F - 32.0 °F 48% 30.16 in 10.0 mi North 10.4 mph 24.2 mph N/A   Clear
10:53 AM 54.0 °F - 30.9 °F 41% 30.17 in 10.0 mi North 13.8 mph - N/A   Clear
11:53 AM 59.0 °F - 30.0 °F 33% 30.16 in 10.0 mi NNE 10.4 mph 19.6 mph N/A   Clear
12:53 PM 60.1 °F - 30.0 °F 32% 30.17 in 10.0 mi NW 9.2 mph - 0.00 in   Clear
1:53 PM 63.0 °F - 30.9 °F 30% 30.13 in 10.0 mi WNW 6.9 mph - 0.00 in   Clear
2:53 PM 66.0 °F - 30.0 °F 26% 30.11 in 10.0 mi Variable 5.8 mph - N/A   Clear
3:53 PM 64.0 °F - 37.0 °F 37% 30.10 in 10.0 mi WNW 11.5 mph - N/A   Clear
4:53 PM 64.0 °F - 35.1 °F 34% 30.10 in 10.0 mi NW 10.4 mph - 0.00 in Rain Light Rain
5:53 PM 62.1 °F - 39.0 °F 43% 30.11 in 10.0 mi NW 12.7 mph - 0.00 in   Clear
6:53 PM 59.0 °F - 39.0 °F 48% 30.14 in 10.0 mi NW 11.5 mph - 0.00 in   Clear
7:53 PM 55.0 °F - 39.9 °F 57% 30.16 in 10.0 mi NW 6.9 mph - N/A   Clear
8:53 PM 52.0 °F - 41.0 °F 66% 30.18 in 10.0 mi NW 3.5 mph - N/A   Clear
9:53 PM 50.0 °F - 41.0 °F 71% 30.20 in 10.0 mi Calm Calm - 0.00 in Rain Light Rain
10:53 PM 44.1 °F - 39.9 °F 85% 30.23 in 10.0 mi Calm Calm - N/A   Clear
11:53 PM 45.0 °F 43.5 °F 39.9 °F 82% 30.25 in 10.0 mi NNE 3.5 mph - N/A   Clear